#timestamp,LO_Frequency,Hit 
1502834415.4,286047003.9,N
1502834435.2,286047003.8,N
1502834455.0,286047006.0,N
1502834455.9,286047006.0,N
1502834475.8,286047003.4,N
1502834495.6,286047005.3,N
1502834515.4,286047007.6,N
1502834535.2,286047005.0,N
1502834555.1,286047003.4,N
1502834556.0,286047003.4,N
1502834575.8,286047003.4,N
1502834595.6,286047003.5,N
1502834615.5,286047004.1,N
1502834635.3,286047002.6,N
1502834655.1,286047003.0,N
1502834675.9,286047003.3,N
1502834695.7,286047004.8,N
1502834715.5,286047005.7,N
1502834735.4,286047004.5,N
1502834755.2,286047004.8,N
1502834775.0,286047003.3,N
1502834775.9,286047003.3,N
1502834795.8,286047004.5,N
1502834815.6,286047007.6,N
1502834835.4,286047004.6,N
1502834855.2,286047006.2,N
1502834875.1,286047006.1,N
1502834876.0,286047006.1,N
1502834895.8,286047008.9,N
1502834915.6,286047008.8,N
1502834935.5,286047007.9,N
1502834955.3,286047008.6,N
1502834975.1,286047009.1,N
1502834995.9,286047006.6,N
1502835015.7,286047008.7,N
1502835035.5,286047010.8,N
1502835055.3,286047010.2,N
1502835075.2,286047007.7,N
1502835095.0,286047010.7,N
1502835095.9,286047010.7,N
1502835115.7,286047009.8,N
1502835135.6,286047010.1,N
1502835155.4,286047010.5,N
1502835175.2,286047007.8,N
1502835195.1,286047007.8,N
1502835196.0,286047007.8,N
1502835215.8,286047007.8,N
1502835235.6,286047007.9,N
1502835255.5,286047009.0,N
1502835275.3,286047010.1,Y
1502835295.1,286047005.4,N
1502835315.9,286047009.2,N
1502835335.7,286047007.4,N
1502835355.5,286047006.2,N
1502835375.3,286047007.0,N
1502835395.2,286047006.2,N
1502835415.0,286047006.7,N
1502835415.9,286047006.7,N
1502835435.7,286047009.1,N
1502835455.6,286047007.7,N
1502835475.4,286047008.5,N
1502835495.2,286047006.9,N
1502835515.1,286047008.7,Y
1502835516.0,286047008.7,Y
1502835535.8,286046997.8,N
1502835555.6,286046999.4,N
1502835595.7,286046999.0,P
1502835615.5,286046998.9,P
1502835635.3,286047000.7,P
1502835655.1,286046998.5,N
1502835675.9,286047001.1,N
1502835695.7,286046999.1,N
1502835715.5,286046998.7,N
1502835735.4,286046997.3,P
1502835755.2,286047001.2,N
1502835775.0,286046997.1,N
1502835775.9,286046997.1,N
1502835795.8,286046998.9,N
1502835815.6,286046998.1,N
1502835835.4,286047000.8,N
1502835855.3,286046998.1,N
1502835875.1,286047002.5,N
1502835895.8,286047001.9,N
1502835915.7,286047002.4,N
1502835935.5,286047000.3,N
1502835955.3,286047000.2,N
1502835975.2,286046999.8,N
1502835995.9,286046998.3,N
1502836015.7,286046999.1,N
1502836035.6,286047000.7,N
1502836055.4,286047000.6,N
1502836075.2,286047000.6,N
1502836095.0,286047000.8,N
1502836096.0,286047000.8,N
1502836115.8,286047002.5,N
1502836135.6,286046999.7,N
1502836155.4,286047000.2,N
1502836175.3,286047000.0,N
1502836195.1,286046999.7,N
1502836215.8,286047001.4,N
1502836235.7,286047002.7,N
1502836255.5,286047004.4,N
1502836275.3,286047001.6,N
1502836295.2,286047001.4,N
1502836315.9,286047002.6,N
1502836335.7,286046999.7,N
1502836355.6,286047001.3,N
1502836375.4,286047003.8,N
1502836395.2,286047003.6,N
1502836415.0,286047003.2,N
1502836415.9,286047003.2,N
1502836435.8,286047004.4,N
1502836455.6,286047003.8,N
1502836475.4,286047003.1,N
1502836495.3,286047001.4,N
1502836515.1,286047001.5,N
1502836535.8,286047002.0,N
1502836555.7,286047002.9,N
1502836575.5,286047005.5,P
1502836595.3,286047000.2,N
1502836615.2,286047001.0,N
1502836635.9,286046999.4,N
1502836655.7,286047000.7,N
1502836675.6,286047002.6,N
1502836695.4,286046999.8,N
1502836715.2,286047000.7,N
1502836735.1,286046999.8,N
1502836736.0,286046999.8,N
1502836755.8,286047000.8,N
1502836775.6,286047001.4,N
1502836795.5,286047004.3,N
1502836815.3,286047002.6,N
1502836835.1,286047002.8,N
1502836855.8,286047002.7,N
1502836875.7,286047000.0,N
1502836895.5,286047000.8,N
1502836915.3,286047000.7,N
1502836935.2,286047000.3,N
1502836955.9,286047001.5,N
1502836975.7,286047002.3,N
1502836995.6,286047001.8,N
1502837015.4,286046999.7,N
1502837035.2,286047002.0,N
1502837055.1,286047002.2,N
1502837056.0,286047002.2,N
1502837075.8,286047001.7,N
1502837095.6,286047002.6,N
1502837115.4,286047000.5,N
1502837135.3,286047000.1,N
1502837155.1,286047000.1,N
1502837175.8,286047000.3,N
1502837195.7,286047002.8,N
1502837215.5,286047002.2,N
1502837235.3,286047002.0,N
1502837255.2,286047002.6,N
1502837275.9,286047001.9,N
1502837295.7,286047002.5,N
1502837315.6,286047003.2,N
1502837335.4,286047002.9,N
1502837355.2,286047003.6,P
1502837375.1,286047001.5,N
1502837376.0,286047001.5,N
1502837395.8,286047004.0,P
1502837415.6,286047000.2,N
1502837435.5,286047001.0,N
1502837455.3,286046998.8,N
1502837475.1,286047000.6,N
1502837495.9,286046999.1,N
1502837515.7,286046998.3,N
1502837535.5,286046998.2,N
1502837555.4,286047000.7,N
1502837575.2,286047000.8,N
1502837595.0,286047000.6,N
1502837595.9,286047000.6,N
1502837615.8,286047000.4,N
1502837635.6,286046998.4,N
1502837655.4,286046999.2,N
1502837675.2,286046998.8,N
1502837695.1,286046999.1,N
1502837696.0,286046999.1,N
1502837715.8,286046996.5,N
1502837735.6,286047000.9,N
1502837755.5,286046998.5,N
1502837775.3,286047000.7,N
1502837795.1,286047000.0,N
1502837815.9,286046999.9,N
1502837835.7,286046999.8,N
1502837855.5,286047001.6,N
1502837875.4,286047002.4,N
1502837895.2,286047001.8,N
1502837915.0,286047000.7,N
1502837915.9,286047000.7,N
1502837935.8,286047000.3,N
1502837955.6,286047000.5,N
1502837975.4,286046998.7,N
1502837995.2,286046999.9,N
